Regional Weather Roundup
Issued by NWS

Home | Current Version | Previous Version | Text Only | Print | Product List | Glossary Off
Versions: 1 2 3 4 5 6 7 8 9 10 11 12 13 14 15 16 17 18 19 20 21 22 23 24 25 26 27 28 29 30 31 32 33 34 35 36 37 38 39 40 41 42 43 44 45 46 47 48 49 50

000
ASUS43 KMPX 310210
RWRMN
WEATHER ROUNDUP FOR MINNESOTA
NATIONAL WEATHER SERVICE TWIN CITIES/CHANHASSEN MN
900 PM CDT THU JUL 30 2015


NOTE: "FAIR" INDICATES FEW OR NO CLOUDS BELOW 12,000 FEET WITH NO
SIGNIFICANT WEATHER AND/OR OBSTRUCTIONS TO VISIBILITY. N/A MEANS
CURRENT SKY AND/OR WEATHER CONDITIONS ARE NOT AVAILABLE.

MNZ060>063-068>070-310300-
   Twin Cities Metro

CITY           SKY/WX    TMP DP  RH WIND       PRES   REMARKS
TWIN CITIES    PTCLDY    79  59  50 W8        30.00F
ST PAUL        CLEAR     78  59  51 W9        30.00S
CRYSTAL        CLEAR     77  59  53 W7        29.99S
BLAINE         CLEAR     79  59  50 W8        30.00S
LAKEVILLE      CLEAR     72  63  73 CALM      30.02S
EDEN PRAIRIE   CLEAR     77  60  55 W5        30.00S
SOUTH ST PAUL  CLEAR     78  57  48 W3        30.00S
LAKE ELMO      FAIR      72  59  64 W6        30.01S
$$
MNZ001>005-007-008-013>017-022>024-027-028-310300-
   Northwest Minnesota

CITY           SKY/WX    TMP DP  RH WIND       PRES   REMARKS
BEMIDJI        MOCLDY    72  55  55 W9        29.97S
HALLOCK        CLEAR     70  54  56 NW10      29.96R
ROSEAU         CLEAR     70  59  68 W7        29.93R
WARROAD        PTCLDY    68  61  77 W6        29.92S
THIEF RVR FALL PTCLDY    72  50  46 W10       29.98R
CROOKSTON      PTCLDY    72  54  53 NW10      29.99R
FOSSTON        MOCLDY    66  55  68 W5        29.99S
DETROIT LAKES  CLEAR     72  55  56 W9        30.03S
MOORHEAD       CLEAR     70  57  64 W8        30.02S
PARK RAPIDS    CLEAR     71  52  50 W10       30.00S
MAHNOMEN       FAIR      69  56  65 W7        30.00R
$$
MNZ006-009>011-018-025>026-310300-
   North Central Minnesota

CITY           SKY/WX    TMP DP  RH WIND       PRES   REMARKS
BAUDETTE       CLOUDY    68  55  63 N8        29.92R
FLAG ISLAND    MOCLDY    70  54  56 W10       29.88S
INTL FALLS     MOCLDY    63  55  75 W5        29.89R
WASKISH        CLOUDY    73  61  64 W13       29.93R
BIG FORK       CLEAR     70  55  60 SW5       29.94R
LONGVILLE      PTCLDY    72  54  53 W3        29.97S
GRAND RAPIDS   CLEAR     72  52  49 W5        29.95S
CRANE LAKE     CLEAR     70  54  56 W2        29.89S
ORR            PTCLDY    70  52  52 CALM      29.88S
COOK           CLEAR     72  55  56 W8        29.91S
WALKER         FAIR      69  56  62 W5        29.98S
$$
MNZ012-019>021-037-310300-
   Northeast Minnesota

CITY           SKY/WX    TMP DP  RH WIND       PRES   REMARKS
DULUTH         PTCLDY    69  54  58 W8        29.93S
ELY            CLEAR     70  54  56 W8        29.89S
HIBBING        CLEAR     69  54  58 W5        29.93S
EVELETH        CLEAR     72  54  53 W6        29.93S
DULUTH HARBOR  CLEAR     77  57  50 W12       29.91S
TWO HARBORS    CLEAR     72  57  60 W3        29.89R
SILVER BAY     CLEAR     70  54  56 CALM      29.88R
GRAND MARAIS     N/A     67  54  63 N10G23    29.84R
G MARAIS ARPRT   N/A     59  52  77 N10       29.91S
$$
MNZ029>031-032-039>041-046>048-054>057-064-310300-
   West Central Minnesota

CITY           SKY/WX    TMP DP  RH WIND       PRES   REMARKS
FERGUS FALLS   CLEAR     70  59  68 NW7       30.02S
WHEATON        CLEAR     72  59  64 W6        30.06S
MORRIS         CLEAR     72  63  73 NW5       30.04R
ALEXANDRIA     CLEAR     71  58  63 W7        30.05S
ELBOW LAKE     FAIR      69  59  70 W5        30.04R
WADENA         CLEAR     72  54  53 W5        30.01S
GLENWOOD       CLEAR     72  61  68 W6        30.05S
APPLETON       CLEAR     73  63  68 N7        30.04R
BENSON         CLEAR     72  61  68 N6        30.04R
ORTONVILLE     CLEAR     73  61  64 N6        30.05S
MADISON        PTCLDY    73  61  64 NW8       30.05R
WILLMAR        FAIR      73  64  73 W3        30.05R
$$
MNZ033>034-036-042>043-049>051-058-059-310300-
   Central Minnesota

CITY           SKY/WX    TMP DP  RH WIND       PRES   REMARKS
ST CLOUD       CLEAR     74  58  57 W7        30.00S
SAUK CENTRE    FAIR      70  59  67 W5        30.03S
PAYNESVILLE    CLEAR     68  62  80 SW3       30.04R
AITKIN         CLEAR     72  54  53 W3        29.97S
PINE RIVER     PTCLDY    72  55  56 W3        30.02S
BRAINERD       CLEAR     73  54  51 W8        30.00R
STAPLES        CLEAR     66  55  68 W6        30.01S
LONG PRAIRIE   FAIR      72  55  56 W6        30.03S
LITTLE FALLS   CLEAR     73  54  49 W3        30.01S
LITCHFIELD     CLEAR     75  66  73 CALM      30.03S
BUFFALO        CLEAR     75  60  60 CALM      30.02S
MAPLE LAKE     PTCLDY    73  63  68 CALM      30.02S
$$
MNZ037-044-045-052-053-310300-
   East Central Minnesota

CITY           SKY/WX    TMP DP  RH WIND       PRES   REMARKS
PRINCETON      CLEAR     73  59  60 SW5       30.00S
MORA           CLEAR     70  55  60 W3        30.00S
CAMBRIDGE      CLEAR     77  61  57 W3        29.98S
RUSH CITY      CLEAR     72  59  64 W5        29.98S
MOOSE LAKE     CLEAR     68  57  68 W5        29.95R
HINCKLEY       FAIR      70  61  73 W6        29.97S
CLOQUET        CLEAR     72  52  49 W8        29.95S
MCGREGOR       CLEAR     72  55  56 W3        29.97S
$$
MNZ071>073-080-081-089-090-097-098-310300-
   Southwest Minnesota

CITY           SKY/WX    TMP DP  RH WIND       PRES   REMARKS
MONTEVIDEO     CLEAR     73  59  60 N3        30.06R
GRANITE FALLS  CLEAR     71  65  82 W5        30.05R
CANBY          CLEAR     73  62  67 W5        30.07R
MARSHALL       CLEAR     73  59  60 W7        30.07S
REDWOOD FALLS  PTCLDY    80  59  48 W10       30.02F
OLIVIA         PTCLDY    70  63  78 CALM      30.03S
PIPESTONE      CLEAR     72  64  78 SW5       30.10F
WINDOM         CLEAR     73  63  68 CALM      30.08S
WORTHINGTON    CLEAR     73  63  68 W6        30.10S
JACKSON        CLEAR     73  64  73 W5        30.09S
TRACY          CLEAR     73  63  68 W7        30.07S
SLAYTON        CLEAR     71  64  79 CALM      30.10F
$$
MNZ065>067-074>077-082>085-091>093-310300-
   South Central Minnesota

CITY           SKY/WX    TMP DP  RH WIND       PRES   REMARKS
MANKATO        CLEAR     73  57  56 SW5       30.03F
NEW ULM        CLEAR     72  63  73 SW6       30.04S
ST JAMES       CLEAR     75  64  69 SW6       30.06S
FAIRMONT       CLEAR     75  59  57 W7        30.06F
GLENCOE        CLEAR     74  65  73 CALM      30.01F
FARIBAULT      CLEAR     73  63  68 CALM      30.04S
OWATONNA       CLEAR     68  63  83 SW6       30.04F
WASECA         CLEAR     70  64  83 SW3       30.06S
ALBERT LEA     CLEAR     73  63  68 CALM      30.06S
$$
MNZ078>079-086>088-094>096-310300-
   Southeast Minnesota

CITY           SKY/WX    TMP DP  RH WIND       PRES   REMARKS
ROCHESTER      CLEAR     68  62  81 SW8       30.06S
RED WING       CLEAR     75  59  57 W3        29.99S
STANTON        CLEAR     73  63  71 SW3       30.00F
DODGE CENTER   CLEAR     68  61  77 SW5       30.05F
WINONA         CLEAR     79  59  50 W6        30.01S
AUSTIN         CLEAR     75  61  60 W5        30.06S
PRESTON        CLEAR     71  60  67 W7        30.06S
$$
ABBREVIATIONS USED IN REMARKS
   TC - TEMPERATURES IN CELSIUS
  WCI - WIND CHILL INDEX
   HX - HEAT INDEX
  VSB - VISIBILITY
$$



USA.gov is the U.S. government's official web portal to all federal, state and local government web resources and services.